Location: Arcizac
(43.0933°N, 0.0112°E)
Time: 21:27:14
(UTC+00:00)

Genesis I - Pass Details

Date: 14 December 2019
Orbit: 494 x 529 km, 64.5° (Epoch: 21 January)

Event Time Altitude Azimuth Distance (km) Brightness Sun altitude
Rises 17:19:21 0° 324° (NW) 2,637 7.0 -9.6°
Reaches altitude 10° 17:21:33 10° 323° (NW) 1,740 6.1 -10.0°
Maximum altitude 17:25:26 75° 237° (WSW) 529 3.4 -10.6°
Drops below altitude 10° 17:29:14 10° 153° (SSE) 1,706 5.8 -11.3°
Sets 17:31:22 0° 151° (SSE) 2,580 6.7 -11.6°
